Pila San Vigilio, Italy 16 day weather forecast

Slopes altitude range 1200 m - 2750m

Number of lifts: 12 Pistes: 70km

In some cases the lift and piste totals shown are for the ski domain (e.g. Three Valleys) rather than individual resort (e.g. Courchevel)

Overview

The 16 day weather forecast is fully updated 4 times every day.

    • Sat 20 OCT 2018
    • Sat 20
    • 2C 10C
    • Sun 21 OCT 2018
    • Sun 21
    • 3C 11C
    • Mon 22 OCT 2018
    • Mon 22
    • -1C 7C
    • Tue 23 OCT 2018
    • Tue 23
    • 0C 8C
    • Wed 24 OCT 2018
    • Wed 24
    • 2C 11C
    • Thu 25 OCT 2018
    • Thu 25
    • 2C 11C
    • Fri 26 OCT 2018
    • Fri 26
    • 0C 7C
    • Sat 27 OCT 2018
    • Sat 27
    • -1C 1C
    • Sun 28 OCT 2018
    • Sun 28
    • -10C -5C
    • Mon 29 OCT 2018
    • Mon 29
    • -6C -4C
    • Tue 30 OCT 2018
    • Tue 30
    • -3C 3C
    • Wed 31 OCT 2018
    • Wed 31
    • 2C 4C
    • Thu 01 NOV 2018
    • Thu 01
    • -1C 2C
    • Fri 02 NOV 2018
    • Fri 02
    • -3C 2C
    • Sat 03 NOV 2018
    • Sat 03
    • -5C 3C
    • Sun 04 NOV 2018
    • Sun 04
    • -3C 5C

Date:

Time Type 0°C level Temp Chill Snow Cloud Speed Gust Dir Press
12:00 3408m 10°C 10_4 0cm 57% 4mph 4mph 1024mB
15:00 3590m 10°C 10_2 0cm 0% 2mph 3mph 1024mB
18:00 3652m 10°C 10_6 0cm 0% 6mph 7mph 1025mB
21:00 3741m 3°C 3_5 0cm 7% 5mph 6mph 1026mB
0:00 3754m 3°C 3_6 0cm 30% 6mph 7mph 1025mB
3:00 3757m 2°C 2_8 0cm 88% 8mph 8mph 1024mB
6:00 3800m 2°C 2_9 0cm 90% 9mph 9mph 1023mB
9:00 3812m 3°C 3_6 0cm 93% 6mph 8mph 1022mB
12:00 3784m 11°C 11_4 0cm 82% 4mph 6mph 1020mB
15:00 3717m 11°C 11_3 0cm 5% 3mph 5mph 1019mB
18:00 2645m 11°C 11_1 0cm 2% 1mph 2mph 1021mB
21:00 2748m 0°C 0_5 0cm 32% 5mph 6mph 1023mB
0:00 2686m 0°C 0_4 0cm 64% 4mph 5mph 1023mB
3:00 2552m 0°C 0_4 0cm 75% 4mph 5mph 1022mB
6:00 2347m -1°C -1_4 0cm 43% 4mph 6mph 1023mB
9:00 2835m -1°C -1_0 0cm 0% 0mph 2mph 1023mB
12:00 3035m 7°C 7_3 0cm 0% 3mph 4mph 1022mB
15:00 3149m 7°C 7_4 0cm 0% 4mph 6mph 1021mB
18:00 2564m 7°C 7_7 0cm 0% 7mph 8mph 1025mB
21:00 2499m 0°C 0_6 0cm 14% 6mph 7mph 1027mB
0:00 2531m 0°C 0_6 0cm 23% 6mph 6mph 1027mB
3:00 2586m 0°C 0_7 0cm 39% 7mph 8mph 1026mB
6:00 2587m 0°C 0_8 0cm 20% 8mph 9mph 1027mB
9:00 3346m 0°C 0_6 0cm 31% 6mph 8mph 1026mB
12:00 3203m 8°C 8_5 0cm 62% 5mph 7mph 1024mB
15:00 3246m 8°C 8_6 0cm 93% 6mph 8mph 1023mB
18:00 3220m 8°C 8_9 0cm 93% 9mph 10mph 1025mB
21:00 3288m 1°C 1_10 0cm 90% 10mph 10mph 1026mB
0:00 3377m 1°C 1_10 0cm 52% 10mph 10mph 1025mB
3:00 3420m 1°C 1_11 0cm 0% 11mph 11mph 1024mB
6:00 3453m 1°C 1_11 0cm 1% 11mph 11mph 1024mB
9:00 3694m 2°C 2_11 0cm 10% 11mph 13mph 1023mB
12:00 3970m 11°C 11_10 0cm 7% 10mph 12mph 1021mB
15:00 4095m 11°C 11_10 0cm 2% 10mph 12mph 1021mB
18:00 4073m 11°C 11_11 0cm 31% 11mph 11mph 1022mB
21:00 4139m 3°C 3_10 0cm 95% 10mph 10mph 1023mB
0:00 4194m 3°C 3_9 0cm 93% 9mph 9mph 1022mB
3:00 4170m 3°C 3_8 0cm 85% 8mph 9mph 1022mB
6:00 4139m 2°C 2_8 0cm 87% 8mph 8mph 1022mB
9:00 4081m 2°C 2_2 0cm 91% 2mph 3mph 1021mB
12:00 4035m 11°C 11_1 0cm 78% 1mph 2mph 1019mB
15:00 4001m 11°C 11_1 0cm 47% 1mph 1mph 1018mB
18:00 3996m 11°C 11_5 0cm 32% 5mph 6mph 1019mB
21:00 4023m 2°C 2_4 0cm 10% 4mph 5mph 1018mB
0:00 3780m 1°C 1_4 0cm 5% 4mph 5mph 1018mB
3:00 3683m 1°C 1_4 0cm 38% 4mph 5mph 1017mB
6:00 2674m 0°C 0_4 0cm 51% 4mph 5mph 1016mB
9:00 3531m 0°C 0_4 0cm 7% 4mph 4mph 1015mB
12:00 3085m 7°C 7_5 0cm 20% 5mph 4mph 1013mB
15:00 2885m 7°C 7_4 0cm 3% 4mph 5mph 1011mB
18:00 2729m 7°C 7_3 0cm 50% 3mph 4mph 1011mB
21:00 2688m 2°C 2_3 0cm 96% 3mph 4mph 1011mB
0:00 2597m 2°C 2_5 1cm 96% 5mph 5mph 1009mB
3:00 2365m 0°C 0_6 1cm 96% 6mph 6mph 1008mB
6:00 2359m -1°C -1_5 1cm 97% 5mph 5mph 1007mB
9:00 2235m 0°C 0_7 2cm 99% 7mph 8mph 1007mB
12:00 2032m 1°C 1_8 2cm 99% 8mph 9mph 1007mB
15:00 1934m -1°C -1_8 1cm 99% 8mph 10mph 1006mB
18:00 1483m -1°C -1_9 1cm 98% 9mph 9mph 1008mB
21:00 1157m -7°C -7_9 0cm 47% 9mph 9mph 1009mB
0:00 1191m -8°C -8_8 0cm 50% 8mph 8mph 1008mB
3:00 1065m -8°C -8_7 1cm 94% 7mph 8mph 1009mB
6:00 780m -10°C -10_7 0cm 84% 7mph 7mph 1010mB
9:00 1363m -10°C -10_3 1cm 76% 3mph 3mph 1009mB
12:00 1515m -5°C -5_6 1cm 88% 6mph 7mph 1009mB
15:00 1405m -5°C -5_5 2cm 99% 5mph 6mph 1010mB
18:00 1216m -5°C -5_4 4cm 99% 4mph 5mph 1011mB
21:00 1122m -8°C -8_1 14cm 100% 1mph 1mph 1012mB
0:00 1360m -8°C -8_6 10cm 100% 6mph 9mph 1012mB
3:00 1396m -6°C -6_3 4cm 100% 3mph 5mph 1012mB
6:00 1428m -6°C -6_3 6cm 100% 3mph 5mph 1013mB
9:00 1520m -6°C -6_4 12cm 100% 4mph 6mph 1015mB
12:00 1619m -4°C -4_3 12cm 100% 3mph 4mph 1016mB
15:00 1676m -4°C -4_4 5cm 100% 4mph 5mph 1018mB
18:00 1205m -4°C -4_3 3cm 91% 3mph 4mph 1022mB
21:00 1248m -7°C -7_4 1cm 47% 4mph 5mph 1025mB
0:00 1202m -7°C -7_5 1cm 47% 5mph 5mph 1026mB
3:00 1245m -8°C -8_6 0cm 59% 6mph 6mph 1025mB
6:00 1465m -8°C -8_6 0cm 69% 6mph 6mph 1025mB
Afternoon 0.239583mm 0 2510m 3°C 3_4 0cm 97% 4mph 7mph 1023mB
Morning 0.09375mm 0 2878m 0°C 0_3 0cm 88% 3mph 6mph 1020mB
Afternoon 3.65104mm 0.5 3294m 4°C 4_9 0cm 100% 9mph 16mph 1008mB
Morning 2.72917mm 6 1889m -1°C -1_4 48cm 99% 4mph 8mph 1010mB
Afternoon 0.932292mm 0 2231m 2°C 2_7 7cm 99% 7mph 8mph 1015mB
Morning 0.0885417mm 0 1760m -2°C -2_11 1cm 83% 11mph 18mph 1021mB
Afternoon 0.0729167mm 0.0625 1512m 2°C 2_11 1cm 89% 11mph 18mph 1025mB
Morning 0.00520833mm 0 1196m -5°C -5_9 0cm 37% 9mph 12mph 1029mB
Afternoon 0mm 0 1665m 3°C 3_7 0cm 5% 7mph 7mph 1026mB
Morning 0mm 0 1593m -3°C -3_6 0cm 31% 6mph 6mph 1024mB
Afternoon 0mm 0 2605m 5°C 5_5 0cm 75% 5mph 6mph 1019mB
Morning 0mm 0 1819m -2°C -2_5 0cm 7% 5mph 6mph 1018mB

16 day outlook at a glance

Forecast issued: 21/10/2018 02:50:45

Chat

Your comments and questions. In a resort? Let us know what it's like!


Characters left 250

For terms and conditions see Readers Comments on the Cookie and privacy policy page.